ACA1327 TNCM-CYYZ

Flight info

Callsign ACA1327
Flight time 4h 23m
Altitude 30000
Route MODOR2 JUICE B520 LARPP Y318 DONQU DCT LNHOM/M080F300 L452 GALVN/M080F320 L452 OXANA/N0474F320 AR8 ECG DCT EDDYS DCT RIC DCT CSN/N0474F330 DCT PSB/N0472F320 DCT WOZEE LINNG3
Aircraft B738/M-SDE2E3FGHIRWXY/LB1

Departure

Time 2026-05-07 06:33
Airport Princess Juliana International Airport (TNCM)

Arrival

Time 2026-05-07 10:56
Airport Toronto Pearson International Airport (CYYZ)
Time Latitude Longitude Altitude Speed Heading
2026-05-07 06:15 18.04321 -63.11430 21 ft 0 kts 352°
2026-05-07 06:24 18.04296 -63.11426 22 ft 4 kts 352°
2026-05-07 06:25 18.04270 -63.11422 22 ft 4 kts 348°
2026-05-07 06:25 18.04249 -63.11416 21 ft 2 kts 335°
2026-05-07 06:25 18.04240 -63.11410 23 ft 2 kts 306°
2026-05-07 06:25 18.04235 -63.11399 23 ft 2 kts 272°
2026-05-07 06:26 18.04235 -63.11392 23 ft 2 kts 264°
2026-05-07 06:26 18.04237 -63.11380 21 ft 2 kts 261°
2026-05-07 06:26 18.04237 -63.11379 21 ft 0 kts 261°
2026-05-07 06:30 18.04237 -63.11380 21 ft 1 kts 261°
2026-05-07 06:30 18.04234 -63.11398 22 ft 5 kts 261°
2026-05-07 06:30 18.04226 -63.11449 20 ft 10 kts 259°
2026-05-07 06:31 18.04186 -63.11521 20 ft 13 kts 231°
2026-05-07 06:31 18.04125 -63.11600 20 ft 14 kts 231°
2026-05-07 06:31 18.04070 -63.11678 20 ft 13 kts 245°
2026-05-07 06:31 18.04053 -63.11770 21 ft 13 kts 262°
2026-05-07 06:32 18.04040 -63.11862 21 ft 12 kts 261°
2026-05-07 06:32 18.04003 -63.11939 20 ft 10 kts 229°
2026-05-07 06:32 18.03946 -63.11950 21 ft 9 kts 129°
2026-05-07 06:32 18.03955 -63.11865 22 ft 30 kts 80°
2026-05-07 06:33 18.04026 -63.11362 21 ft 106 kts 81°
2026-05-07 06:33 18.04164 -63.10382 50 ft 164 kts 82°
2026-05-07 06:33 18.04334 -63.09158 655 ft 175 kts 83°
2026-05-07 06:33 18.04076 -63.07936 1469 ft 178 kts 126°
2026-05-07 06:34 18.03023 -63.07217 1931 ft 196 kts 163°
2026-05-07 06:34 18.01583 -63.07254 2201 ft 218 kts 187°
2026-05-07 06:34 17.99995 -63.07493 2372 ft 241 kts 183°
2026-05-07 06:34 17.98315 -63.07650 2917 ft 245 kts 182°
2026-05-07 06:35 17.96552 -63.07779 3285 ft 266 kts 181°
2026-05-07 06:35 17.94675 -63.07887 3931 ft 271 kts 180°
2026-05-07 06:35 17.92794 -63.07976 4747 ft 271 kts 181°
2026-05-07 06:35 17.90900 -63.08056 5485 ft 274 kts 181°
2026-05-07 06:36 17.88978 -63.08133 6175 ft 279 kts 181°
2026-05-07 06:36 17.87028 -63.08219 6840 ft 283 kts 184°
2026-05-07 06:36 17.85148 -63.08826 7461 ft 287 kts 216°
2026-05-07 06:36 17.83852 -63.10393 8144 ft 288 kts 245°
2026-05-07 06:37 17.83354 -63.12415 8778 ft 290 kts 270°
2026-05-07 06:37 17.83677 -63.14500 9390 ft 292 kts 292°
2026-05-07 06:37 17.84617 -63.16390 10085 ft 293 kts 302°
2026-05-07 06:37 17.85699 -63.18230 10540 ft 304 kts 303°
2026-05-07 06:38 17.86856 -63.20181 10683 ft 325 kts 302°
2026-05-07 06:38 17.88078 -63.22264 10820 ft 345 kts 302°
2026-05-07 06:38 17.89357 -63.24470 10952 ft 363 kts 302°
2026-05-07 06:38 17.90687 -63.26788 11072 ft 379 kts 301°
2026-05-07 06:39 17.92063 -63.29209 11195 ft 393 kts 301°
2026-05-07 06:39 17.93470 -63.31700 11551 ft 399 kts 301°
2026-05-07 06:39 17.94890 -63.34222 11961 ft 403 kts 301°
2026-05-07 06:39 17.96318 -63.36762 12420 ft 405 kts 301°
2026-05-07 06:40 17.97749 -63.39309 12957 ft 404 kts 301°
2026-05-07 06:40 17.99177 -63.41853 13480 ft 405 kts 301°
2026-05-07 06:40 18.00616 -63.44416 13835 ft 409 kts 301°
2026-05-07 06:40 18.02065 -63.46999 14194 ft 412 kts 301°
2026-05-07 06:41 18.03530 -63.49610 14498 ft 416 kts 301°
2026-05-07 06:41 18.04997 -63.52227 14913 ft 417 kts 301°
2026-05-07 06:41 18.06464 -63.54843 15439 ft 413 kts 301°
2026-05-07 06:41 18.07915 -63.57434 15972 ft 412 kts 301°
2026-05-07 06:42 18.09378 -63.60046 16195 ft 418 kts 301°
2026-05-07 06:42 18.10858 -63.62689 16569 ft 419 kts 301°
2026-05-07 06:42 18.12334 -63.65330 17011 ft 419 kts 301°
2026-05-07 06:42 18.13536 -63.68131 17318 ft 425 kts 285°
2026-05-07 06:43 18.13992 -63.71173 17679 ft 428 kts 278°
2026-05-07 06:43 18.14392 -63.74277 18011 ft 430 kts 280°
2026-05-07 06:43 18.14887 -63.77423 18373 ft 431 kts 281°
2026-05-07 06:43 18.15399 -63.80492 18690 ft 433 kts 281°
2026-05-07 06:44 18.15930 -63.83615 18978 ft 435 kts 282°
2026-05-07 06:44 18.16463 -63.86749 19258 ft 437 kts 281°
2026-05-07 06:44 18.16996 -63.89903 19540 ft 439 kts 281°
2026-05-07 06:44 18.17529 -63.93069 19824 ft 440 kts 281°
2026-05-07 06:45 18.18059 -63.96243 20097 ft 442 kts 281°
2026-05-07 06:45 18.18592 -63.99437 20356 ft 444 kts 281°
2026-05-07 06:45 18.19126 -64.02640 20619 ft 446 kts 281°
2026-05-07 06:45 18.19662 -64.05857 20890 ft 447 kts 281°
2026-05-07 06:46 18.20261 -64.09069 21140 ft 448 kts 285°
2026-05-07 06:46 18.21297 -64.12159 21345 ft 450 kts 295°
2026-05-07 06:46 18.22802 -64.15040 21629 ft 450 kts 303°
2026-05-07 06:46 18.24510 -64.17802 21836 ft 452 kts 303°
2026-05-07 06:47 18.26196 -64.20601 22044 ft 454 kts 302°
2026-05-07 06:47 18.27869 -64.23426 22298 ft 455 kts 302°
2026-05-07 06:47 18.29534 -64.26263 22485 ft 457 kts 302°
2026-05-07 06:47 18.31207 -64.29126 22687 ft 459 kts 301°
2026-05-07 06:48 18.32879 -64.31990 22900 ft 460 kts 301°
2026-05-07 06:48 18.34558 -64.34865 23108 ft 462 kts 301°
2026-05-07 06:48 18.36242 -64.37748 23310 ft 463 kts 301°
2026-05-07 06:48 18.37934 -64.40644 23488 ft 465 kts 301°
2026-05-07 06:49 18.39631 -64.43547 23662 ft 466 kts 301°
2026-05-07 06:49 18.41331 -64.46457 23821 ft 467 kts 301°
2026-05-07 06:49 18.43036 -64.49377 23997 ft 468 kts 301°
2026-05-07 06:49 18.44743 -64.52300 24161 ft 469 kts 302°
2026-05-07 06:50 18.46450 -64.55225 24328 ft 470 kts 302°
2026-05-07 06:50 18.48163 -64.58162 24480 ft 471 kts 302°
2026-05-07 06:50 18.49877 -64.61102 24630 ft 472 kts 302°
2026-05-07 06:50 18.51594 -64.64049 24769 ft 472 kts 302°
2026-05-07 06:51 18.53312 -64.66999 24926 ft 473 kts 302°
2026-05-07 06:51 18.55011 -64.69918 25066 ft 474 kts 302°
2026-05-07 06:51 18.56737 -64.72884 25209 ft 475 kts 302°
2026-05-07 06:51 18.58463 -64.75853 25343 ft 476 kts 302°
2026-05-07 06:52 18.60191 -64.78826 25474 ft 476 kts 302°
2026-05-07 06:52 18.61922 -64.81804 25647 ft 476 kts 302°
2026-05-07 06:52 18.63647 -64.84776 25866 ft 475 kts 302°
2026-05-07 06:52 18.65370 -64.87743 26096 ft 474 kts 302°
2026-05-07 06:53 18.67086 -64.90701 26305 ft 473 kts 302°
2026-05-07 06:53 18.68800 -64.93657 26508 ft 472 kts 302°
2026-05-07 06:53 18.70513 -64.96612 26781 ft 470 kts 302°
2026-05-07 06:53 18.72211 -64.99544 27062 ft 468 kts 302°
2026-05-07 06:54 18.73905 -65.02469 27350 ft 466 kts 302°
2026-05-07 06:54 18.75592 -65.05385 27575 ft 466 kts 302°
2026-05-07 06:54 18.77281 -65.08303 27773 ft 466 kts 302°
2026-05-07 06:54 18.78967 -65.11219 28023 ft 465 kts 302°
2026-05-07 06:55 18.80648 -65.14127 28300 ft 464 kts 302°
2026-05-07 06:55 18.82324 -65.17028 28579 ft 462 kts 302°
2026-05-07 06:55 18.83996 -65.19924 28834 ft 462 kts 302°
2026-05-07 06:55 18.85668 -65.22820 29069 ft 461 kts 302°
2026-05-07 06:56 18.87335 -65.25710 29320 ft 461 kts 302°
2026-05-07 06:56 18.88999 -65.28597 29603 ft 460 kts 302°
2026-05-07 06:56 18.90657 -65.31475 29890 ft 458 kts 303°
2026-05-07 06:56 18.92310 -65.34343 30099 ft 458 kts 303°
2026-05-07 06:57 18.95626 -65.40104 30069 ft 459 kts 303°
2026-05-07 06:57 18.98929 -65.45849 30078 ft 457 kts 303°
2026-05-07 06:58 19.01665 -65.50616 30072 ft 456 kts 303°
2026-05-07 06:58 19.04948 -65.56344 30071 ft 455 kts 303°
2026-05-07 06:59 19.08224 -65.62063 30064 ft 455 kts 303°
2026-05-07 06:59 19.11498 -65.67787 30077 ft 455 kts 303°
2026-05-07 07:00 19.14770 -65.73510 30071 ft 455 kts 302°
2026-05-07 07:00 19.18039 -65.79235 30073 ft 455 kts 302°
2026-05-07 07:01 19.21311 -65.84969 30072 ft 455 kts 302°
2026-05-07 07:01 19.24583 -65.90710 30069 ft 456 kts 302°
2026-05-07 07:02 19.27858 -65.96461 30065 ft 456 kts 302°
2026-05-07 07:02 19.31133 -66.02218 30069 ft 457 kts 302°
2026-05-07 07:03 19.34389 -66.07946 30069 ft 457 kts 302°
2026-05-07 07:03 19.37665 -66.13716 30068 ft 457 kts 302°
2026-05-07 07:04 19.40943 -66.19494 30067 ft 457 kts 302°
2026-05-07 07:04 19.44217 -66.25272 30061 ft 458 kts 302°
2026-05-07 07:05 19.47497 -66.31064 30071 ft 458 kts 302°
2026-05-07 07:05 19.50771 -66.36855 30079 ft 459 kts 302°
2026-05-07 07:06 19.54054 -66.42666 30068 ft 459 kts 302°
2026-05-07 07:06 19.57335 -66.48476 30069 ft 459 kts 302°
2026-05-07 07:07 19.60788 -66.54161 30065 ft 458 kts 307°
2026-05-07 07:07 19.64633 -66.59545 30059 ft 458 kts 309°
2026-05-07 07:08 19.68518 -66.64904 30069 ft 458 kts 308°
2026-05-07 07:08 19.72363 -66.70302 30068 ft 459 kts 308°
2026-05-07 07:09 19.76157 -66.75693 30069 ft 459 kts 308°
2026-05-07 07:09 19.79969 -66.81128 30068 ft 459 kts 308°
2026-05-07 07:10 19.83774 -66.86559 30069 ft 459 kts 308°
2026-05-07 07:10 19.87583 -66.91997 30063 ft 459 kts 308°
2026-05-07 07:11 19.91392 -66.97439 30067 ft 459 kts 308°
2026-05-07 07:11 19.95201 -67.02886 30065 ft 459 kts 308°
2026-05-07 07:12 19.99010 -67.08337 30067 ft 459 kts 308°
2026-05-07 07:12 20.02818 -67.13792 30068 ft 459 kts 308°
2026-05-07 07:13 20.06624 -67.19251 30069 ft 460 kts 308°
2026-05-07 07:13 20.10433 -67.24718 30061 ft 460 kts 308°
2026-05-07 07:14 20.14236 -67.30181 30066 ft 460 kts 308°
2026-05-07 07:14 20.18042 -67.35655 30065 ft 460 kts 308°
2026-05-07 07:15 20.21852 -67.41138 30066 ft 460 kts 308°
2026-05-07 07:15 20.25658 -67.46622 30065 ft 461 kts 308°
2026-05-07 07:16 20.29464 -67.52110 30071 ft 461 kts 308°
2026-05-07 07:16 20.33267 -67.57600 30061 ft 460 kts 308°
2026-05-07 07:17 20.37037 -67.63047 30063 ft 460 kts 308°
2026-05-07 07:17 20.40830 -67.68531 30063 ft 459 kts 308°
2026-05-07 07:18 20.44618 -67.74015 30065 ft 459 kts 308°
2026-05-07 07:18 20.48405 -67.79503 30066 ft 459 kts 308°
2026-05-07 07:19 20.52188 -67.84989 30066 ft 459 kts 308°
2026-05-07 07:19 20.55971 -67.90480 30065 ft 459 kts 308°
2026-05-07 07:20 20.59754 -67.95978 30063 ft 459 kts 308°
2026-05-07 07:20 20.63535 -68.01477 30063 ft 459 kts 308°
2026-05-07 07:21 20.67313 -68.06978 30066 ft 459 kts 308°
2026-05-07 07:21 20.71332 -68.12190 30065 ft 456 kts 319°
2026-05-07 07:22 20.76474 -68.16082 30082 ft 453 kts 330°
2026-05-07 07:22 20.81908 -68.19517 30065 ft 454 kts 330°
2026-05-07 07:23 20.87306 -68.23009 30060 ft 454 kts 330°
2026-05-07 07:23 20.92698 -68.26521 30066 ft 454 kts 330°
2026-05-07 07:24 20.98090 -68.30036 30062 ft 454 kts 330°
2026-05-07 07:24 21.03475 -68.33546 30065 ft 453 kts 330°
2026-05-07 07:25 21.11557 -68.38819 30063 ft 453 kts 330°
2026-05-07 07:26 21.16942 -68.42335 30065 ft 453 kts 330°
2026-05-07 07:26 21.22288 -68.45829 30065 ft 453 kts 330°
2026-05-07 07:27 21.27706 -68.49372 30063 ft 453 kts 330°
2026-05-07 07:27 21.33082 -68.52892 30048 ft 453 kts 330°
2026-05-07 07:28 21.38423 -68.56392 30063 ft 452 kts 330°
2026-05-07 07:28 21.43793 -68.59914 30062 ft 452 kts 330°
2026-05-07 07:29 21.49164 -68.63439 30062 ft 452 kts 330°
2026-05-07 07:29 21.54528 -68.66963 30063 ft 452 kts 330°
2026-05-07 07:30 21.59889 -68.70488 30063 ft 452 kts 330°
2026-05-07 07:30 21.65251 -68.74017 30062 ft 452 kts 330°
2026-05-07 07:31 21.70610 -68.77547 30066 ft 452 kts 330°
2026-05-07 07:31 21.75966 -68.81078 30062 ft 452 kts 330°
2026-05-07 07:32 21.81324 -68.84614 30060 ft 452 kts 330°
2026-05-07 07:32 21.86680 -68.88151 30054 ft 452 kts 330°
2026-05-07 07:33 21.92035 -68.91691 30061 ft 452 kts 330°
2026-05-07 07:33 21.97394 -68.95237 30066 ft 452 kts 330°
2026-05-07 07:34 22.02749 -68.98783 30062 ft 452 kts 330°
2026-05-07 07:34 22.08102 -69.02331 30060 ft 452 kts 330°
2026-05-07 07:35 22.13457 -69.05884 30062 ft 452 kts 330°
2026-05-07 07:35 22.18809 -69.09438 30062 ft 452 kts 330°
2026-05-07 07:36 22.24165 -69.12998 30066 ft 452 kts 330°
2026-05-07 07:36 22.29514 -69.16556 30064 ft 452 kts 330°
2026-05-07 07:37 22.34868 -69.20121 30048 ft 452 kts 330°
2026-05-07 07:37 22.40221 -69.23689 30060 ft 452 kts 330°
2026-05-07 07:38 22.45547 -69.27241 30063 ft 453 kts 330°
2026-05-07 07:38 22.50945 -69.30845 30070 ft 453 kts 330°
2026-05-07 07:39 22.56278 -69.34410 30064 ft 454 kts 330°
2026-05-07 07:39 22.61651 -69.38003 30061 ft 454 kts 330°
2026-05-07 07:40 22.67018 -69.41597 30068 ft 454 kts 330°
2026-05-07 07:40 22.72388 -69.45196 30066 ft 454 kts 330°
2026-05-07 07:41 22.77760 -69.48799 30064 ft 454 kts 330°
2026-05-07 07:41 22.83127 -69.52403 30066 ft 453 kts 330°
2026-05-07 07:42 22.88483 -69.56003 30065 ft 453 kts 329°
2026-05-07 07:42 22.93836 -69.59604 30066 ft 453 kts 329°
2026-05-07 07:43 22.99187 -69.63207 30067 ft 453 kts 329°
2026-05-07 07:43 23.04539 -69.66813 30065 ft 453 kts 328°
2026-05-07 07:44 23.09890 -69.70423 30066 ft 452 kts 328°
2026-05-07 07:44 23.15235 -69.74032 30067 ft 452 kts 328°
2026-05-07 07:45 23.20574 -69.77641 30067 ft 452 kts 328°
2026-05-07 07:45 23.25916 -69.81255 30062 ft 452 kts 328°
2026-05-07 07:46 23.31221 -69.84847 30061 ft 452 kts 328°
2026-05-07 07:46 23.36556 -69.88462 30054 ft 452 kts 328°
2026-05-07 07:47 23.41891 -69.92083 30068 ft 452 kts 328°
2026-05-07 07:47 23.47230 -69.95709 30062 ft 452 kts 328°
2026-05-07 07:48 23.51666 -69.98724 30066 ft 452 kts 328°
2026-05-07 07:48 23.57010 -70.02359 30065 ft 453 kts 328°
2026-05-07 07:49 23.62353 -70.05998 30069 ft 453 kts 328°
2026-05-07 07:49 23.67695 -70.09639 30062 ft 453 kts 328°
2026-05-07 07:50 23.73034 -70.13282 30072 ft 453 kts 328°
2026-05-07 07:50 23.78370 -70.16926 30075 ft 452 kts 328°
2026-05-07 07:51 23.83703 -70.20573 30052 ft 452 kts 328°
2026-05-07 07:51 23.89038 -70.24223 30062 ft 452 kts 328°
2026-05-07 07:52 23.94375 -70.27879 30059 ft 453 kts 328°
2026-05-07 07:52 23.99718 -70.31543 30064 ft 453 kts 328°
2026-05-07 07:53 24.05060 -70.35209 30062 ft 454 kts 328°
2026-05-07 07:53 24.10410 -70.38885 30066 ft 454 kts 328°
2026-05-07 07:54 24.15756 -70.42562 30066 ft 454 kts 328°
2026-05-07 07:54 24.21102 -70.46242 30064 ft 454 kts 328°
2026-05-07 07:55 24.26415 -70.49903 30065 ft 454 kts 328°
2026-05-07 07:55 24.31759 -70.53590 30058 ft 454 kts 328°
2026-05-07 07:56 24.37103 -70.57281 30065 ft 454 kts 328°
2026-05-07 07:56 24.42457 -70.60981 30063 ft 455 kts 328°
2026-05-07 07:57 24.47824 -70.64693 30060 ft 456 kts 328°
2026-05-07 07:57 24.53200 -70.68417 30064 ft 457 kts 328°
2026-05-07 07:58 24.58582 -70.72149 30065 ft 458 kts 328°
2026-05-07 07:58 24.63965 -70.75885 30060 ft 458 kts 328°
2026-05-07 07:59 24.69349 -70.79626 30070 ft 458 kts 328°
2026-05-07 07:59 24.74744 -70.83379 30066 ft 459 kts 328°
2026-05-07 08:00 24.80146 -70.87139 30061 ft 460 kts 328°
2026-05-07 08:00 24.85553 -70.90909 30063 ft 460 kts 328°
2026-05-07 08:01 24.90966 -70.94686 30068 ft 461 kts 328°
2026-05-07 08:01 24.96387 -70.98472 30059 ft 461 kts 328°
2026-05-07 08:02 25.02103 -71.01631 30076 ft 460 kts 342°
2026-05-07 08:02 25.08296 -71.03252 30063 ft 461 kts 347°
2026-05-07 08:03 25.14545 -71.04864 30062 ft 461 kts 346°
2026-05-07 08:03 25.20784 -71.06521 30063 ft 462 kts 346°
2026-05-07 08:04 25.27028 -71.08192 30060 ft 462 kts 346°
2026-05-07 08:04 25.33270 -71.09862 30076 ft 462 kts 346°
2026-05-07 08:05 25.39515 -71.11532 30077 ft 462 kts 346°
2026-05-07 08:05 25.45757 -71.13203 30066 ft 461 kts 346°
2026-05-07 08:06 25.51998 -71.14875 30064 ft 461 kts 346°
2026-05-07 08:06 25.58236 -71.16548 30074 ft 461 kts 346°
2026-05-07 08:07 25.64474 -71.18222 30080 ft 461 kts 346°
2026-05-07 08:07 25.70710 -71.19898 30060 ft 461 kts 346°
2026-05-07 08:08 25.76940 -71.21575 30065 ft 461 kts 346°
2026-05-07 08:08 25.83169 -71.23252 30070 ft 460 kts 346°
2026-05-07 08:09 25.89398 -71.24932 30073 ft 460 kts 346°
2026-05-07 08:09 25.95622 -71.26612 30072 ft 460 kts 346°
2026-05-07 08:10 26.01808 -71.28284 30072 ft 460 kts 346°
2026-05-07 08:10 26.08032 -71.29967 30070 ft 460 kts 346°
2026-05-07 08:11 26.14252 -71.31652 30071 ft 460 kts 346°
2026-05-07 08:11 26.20476 -71.33339 30070 ft 460 kts 346°
2026-05-07 08:12 26.26695 -71.35027 30071 ft 460 kts 346°
2026-05-07 08:12 26.32914 -71.36717 30072 ft 460 kts 346°
2026-05-07 08:13 26.39133 -71.38409 30073 ft 460 kts 346°
2026-05-07 08:13 26.45358 -71.40104 30072 ft 460 kts 346°
2026-05-07 08:14 26.51578 -71.41800 30079 ft 460 kts 346°
2026-05-07 08:14 26.57805 -71.43499 30076 ft 460 kts 346°
2026-05-07 08:15 26.64027 -71.45199 30072 ft 460 kts 346°
2026-05-07 08:15 26.70252 -71.46902 30074 ft 460 kts 346°
2026-05-07 08:16 26.76471 -71.48605 30078 ft 460 kts 346°
2026-05-07 08:16 26.82697 -71.50312 30083 ft 460 kts 346°
2026-05-07 08:17 26.88920 -71.52020 30076 ft 461 kts 346°
2026-05-07 08:17 26.95150 -71.53732 30077 ft 461 kts 346°
2026-05-07 08:18 27.01378 -71.55445 30080 ft 461 kts 346°
2026-05-07 08:18 27.07612 -71.57162 30075 ft 461 kts 346°
2026-05-07 08:19 27.13835 -71.58878 30084 ft 461 kts 346°
2026-05-07 08:19 27.20023 -71.60586 30079 ft 461 kts 346°
2026-05-07 08:20 27.26254 -71.62308 30076 ft 461 kts 346°
2026-05-07 08:20 27.32486 -71.64032 30082 ft 461 kts 346°
2026-05-07 08:21 27.38718 -71.65758 30079 ft 461 kts 346°
2026-05-07 08:21 27.44953 -71.67487 30081 ft 461 kts 346°
2026-05-07 08:22 27.51188 -71.69218 30079 ft 462 kts 346°
2026-05-07 08:22 27.57425 -71.70952 30079 ft 462 kts 346°
2026-05-07 08:23 27.63666 -71.72689 30082 ft 462 kts 346°
2026-05-07 08:23 27.69906 -71.74427 30082 ft 462 kts 346°
2026-05-07 08:24 27.76144 -71.76168 30085 ft 462 kts 346°
2026-05-07 08:24 27.82389 -71.77911 30081 ft 462 kts 346°
2026-05-07 08:25 27.88632 -71.79657 30084 ft 462 kts 346°
2026-05-07 08:25 27.94878 -71.81406 30085 ft 462 kts 346°
2026-05-07 08:26 28.04172 -71.84012 30092 ft 462 kts 346°
2026-05-07 08:26 28.10433 -71.85770 30083 ft 462 kts 346°
2026-05-07 08:27 28.16672 -71.87524 30085 ft 462 kts 346°
2026-05-07 08:27 28.22903 -71.89278 30084 ft 461 kts 345°
2026-05-07 08:28 28.29138 -71.91035 30088 ft 461 kts 345°
2026-05-07 08:28 28.35362 -71.92791 30087 ft 460 kts 345°
2026-05-07 08:29 28.41572 -71.94549 30090 ft 460 kts 345°
2026-05-07 08:29 28.47774 -71.96307 30089 ft 459 kts 345°
2026-05-07 08:30 28.53968 -71.98064 30090 ft 459 kts 345°
2026-05-07 08:30 28.60162 -71.99824 30089 ft 458 kts 345°
2026-05-07 08:31 28.66353 -72.01585 30093 ft 458 kts 345°
2026-05-07 08:31 28.72502 -72.03337 30091 ft 458 kts 345°
2026-05-07 08:32 28.78690 -72.05101 30093 ft 458 kts 345°
2026-05-07 08:32 28.84872 -72.06866 30093 ft 458 kts 345°
2026-05-07 08:33 28.91058 -72.08635 30105 ft 458 kts 345°
2026-05-07 08:33 28.97242 -72.10404 30092 ft 458 kts 345°
2026-05-07 08:34 29.03425 -72.12176 30093 ft 458 kts 345°
2026-05-07 08:34 29.09604 -72.13949 30092 ft 458 kts 345°
2026-05-07 08:35 29.15784 -72.15724 30093 ft 458 kts 345°
2026-05-07 08:35 29.21962 -72.17501 30102 ft 458 kts 345°
2026-05-07 08:36 29.28138 -72.19280 30091 ft 458 kts 345°
2026-05-07 08:36 29.33270 -72.20759 30093 ft 457 kts 345°
2026-05-07 08:37 29.39441 -72.22540 30095 ft 457 kts 345°
2026-05-07 08:37 29.45607 -72.24322 30092 ft 457 kts 345°
2026-05-07 08:38 29.51766 -72.26105 30103 ft 454 kts 345°
2026-05-07 08:38 29.57839 -72.27863 30096 ft 448 kts 345°
2026-05-07 08:39 29.63879 -72.29616 30095 ft 448 kts 345°
2026-05-07 08:39 29.69935 -72.31375 30093 ft 449 kts 345°
2026-05-07 08:40 29.75994 -72.33137 30115 ft 449 kts 344°
2026-05-07 08:40 29.82051 -72.34901 30098 ft 449 kts 344°
2026-05-07 08:41 29.88113 -72.36668 30096 ft 449 kts 344°
2026-05-07 08:41 29.94170 -72.38436 30098 ft 449 kts 344°
2026-05-07 08:42 30.00187 -72.40195 30097 ft 449 kts 344°
2026-05-07 08:42 30.06239 -72.41967 30106 ft 449 kts 344°
2026-05-07 08:43 30.12287 -72.43739 30095 ft 448 kts 344°
2026-05-07 08:43 30.18329 -72.45514 30098 ft 448 kts 344°
2026-05-07 08:44 30.24363 -72.47298 30096 ft 447 kts 343°
2026-05-07 08:44 30.30393 -72.49086 30095 ft 447 kts 343°
2026-05-07 08:45 30.36422 -72.50875 30102 ft 448 kts 343°
2026-05-07 08:45 30.42456 -72.52667 30096 ft 448 kts 343°
2026-05-07 08:46 30.48486 -72.54461 30098 ft 447 kts 343°
2026-05-07 08:46 30.54517 -72.56257 30098 ft 447 kts 343°
2026-05-07 08:47 30.60544 -72.58059 30095 ft 447 kts 343°
2026-05-07 08:47 30.66573 -72.59872 30104 ft 448 kts 343°
2026-05-07 08:48 30.72618 -72.61685 30094 ft 449 kts 342°
2026-05-07 08:48 30.78662 -72.63512 30095 ft 449 kts 342°
2026-05-07 08:49 30.84713 -72.65341 30095 ft 450 kts 342°
2026-05-07 08:49 30.90774 -72.67173 30103 ft 450 kts 342°
2026-05-07 08:50 30.96830 -72.69005 30096 ft 450 kts 342°
2026-05-07 08:50 31.02852 -72.70829 30094 ft 450 kts 342°
2026-05-07 08:51 31.08909 -72.72667 30094 ft 450 kts 342°
2026-05-07 08:51 31.14967 -72.74507 30095 ft 450 kts 342°
2026-05-07 08:52 31.21025 -72.76350 30099 ft 450 kts 342°
2026-05-07 08:52 31.27086 -72.78196 30095 ft 450 kts 342°
2026-05-07 08:53 31.33152 -72.80046 30088 ft 451 kts 342°
2026-05-07 08:53 31.39220 -72.81899 30089 ft 451 kts 342°
2026-05-07 08:54 31.45289 -72.83754 30117 ft 451 kts 342°
2026-05-07 08:54 31.51362 -72.85614 30097 ft 451 kts 342°
2026-05-07 08:55 31.57435 -72.87476 30089 ft 451 kts 342°
2026-05-07 08:55 31.63512 -72.89342 30088 ft 451 kts 342°
2026-05-07 08:56 31.69588 -72.91210 30088 ft 451 kts 342°
2026-05-07 08:56 31.75661 -72.93080 30094 ft 452 kts 342°
2026-05-07 08:57 31.81747 -72.94956 30083 ft 452 kts 342°
2026-05-07 08:57 31.87818 -72.96829 30085 ft 451 kts 342°
2026-05-07 08:58 31.93877 -72.98703 30079 ft 449 kts 342°
2026-05-07 08:58 31.99918 -73.00573 30100 ft 449 kts 341°
2026-05-07 08:59 32.05965 -73.02448 30084 ft 449 kts 341°
2026-05-07 08:59 32.12011 -73.04325 30073 ft 450 kts 341°
2026-05-07 09:00 32.18060 -73.06205 30078 ft 450 kts 341°
2026-05-07 09:00 32.24113 -73.08090 30076 ft 450 kts 341°
2026-05-07 09:01 32.30170 -73.09977 30071 ft 450 kts 341°
2026-05-07 09:01 32.36229 -73.11870 30065 ft 451 kts 341°
2026-05-07 09:02 32.42291 -73.13770 30065 ft 451 kts 341°
2026-05-07 09:02 32.48360 -73.15674 30068 ft 451 kts 341°
2026-05-07 09:03 32.54382 -73.17566 30081 ft 451 kts 341°
2026-05-07 09:03 32.60456 -73.19478 30066 ft 452 kts 341°
2026-05-07 09:04 32.66533 -73.21392 30063 ft 452 kts 341°
2026-05-07 09:04 32.72611 -73.23310 30063 ft 452 kts 341°
2026-05-07 09:05 32.78694 -73.25232 30061 ft 452 kts 341°
2026-05-07 09:05 32.84778 -73.27157 30058 ft 453 kts 341°
2026-05-07 09:06 32.90882 -73.29092 30062 ft 454 kts 341°
2026-05-07 09:06 32.96984 -73.31027 30062 ft 453 kts 341°
2026-05-07 09:07 33.03053 -73.32955 30056 ft 450 kts 341°
2026-05-07 09:07 33.09093 -73.34878 30073 ft 449 kts 341°
2026-05-07 09:08 33.15180 -73.36820 30064 ft 456 kts 341°
2026-05-07 09:08 33.21340 -73.38786 30048 ft 459 kts 341°
2026-05-07 09:09 33.27513 -73.40756 30046 ft 459 kts 341°
2026-05-07 09:09 33.33683 -73.42724 30038 ft 459 kts 341°
2026-05-07 09:10 33.39815 -73.44683 30047 ft 459 kts 341°
2026-05-07 09:10 33.45999 -73.46663 30040 ft 460 kts 341°
2026-05-07 09:11 33.52193 -73.48649 30098 ft 463 kts 341°
2026-05-07 09:11 33.55304 -73.49648 30330 ft 462 kts 341°
2026-05-07 09:11 33.58397 -73.50640 30710 ft 458 kts 341°
2026-05-07 09:12 33.61453 -73.51620 31142 ft 452 kts 340°
2026-05-07 09:12 33.64481 -73.52593 31568 ft 449 kts 340°
2026-05-07 09:12 33.67486 -73.53560 31912 ft 446 kts 340°
2026-05-07 09:12 33.70482 -73.54527 32020 ft 447 kts 340°
2026-05-07 09:13 33.76502 -73.56472 32017 ft 447 kts 340°
2026-05-07 09:13 33.82497 -73.58406 32028 ft 445 kts 340°
2026-05-07 09:14 33.88470 -73.60337 32045 ft 444 kts 339°
2026-05-07 09:14 33.94435 -73.62268 32030 ft 443 kts 339°
2026-05-07 09:15 34.00355 -73.64187 32020 ft 443 kts 339°
2026-05-07 09:15 34.06305 -73.66118 32017 ft 443 kts 339°
2026-05-07 09:16 34.12263 -73.68055 32013 ft 444 kts 339°
2026-05-07 09:16 34.18226 -73.69997 32015 ft 444 kts 339°
2026-05-07 09:17 34.24203 -73.71946 32015 ft 445 kts 339°
2026-05-07 09:17 34.30174 -73.73896 32004 ft 445 kts 339°
2026-05-07 09:18 34.35850 -73.76607 32015 ft 434 kts 324°
2026-05-07 09:18 34.40572 -73.81026 31993 ft 427 kts 311°
2026-05-07 09:19 34.44684 -73.86210 32004 ft 427 kts 311°
2026-05-07 09:19 34.48831 -73.91371 31994 ft 427 kts 311°
2026-05-07 09:20 34.52989 -73.96524 31997 ft 427 kts 311°
2026-05-07 09:20 34.57148 -74.01681 32007 ft 428 kts 310°
2026-05-07 09:21 34.61307 -74.06846 31997 ft 428 kts 310°
2026-05-07 09:21 34.65435 -74.11983 31986 ft 428 kts 310°
2026-05-07 09:22 34.69590 -74.17161 31990 ft 428 kts 310°
2026-05-07 09:22 34.73737 -74.22337 31981 ft 426 kts 310°
2026-05-07 09:23 34.77864 -74.27494 31980 ft 424 kts 310°
2026-05-07 09:23 34.81968 -74.32631 31977 ft 423 kts 310°
2026-05-07 09:24 34.86060 -74.37762 31976 ft 422 kts 310°
2026-05-07 09:24 34.90146 -74.42894 31982 ft 422 kts 310°
2026-05-07 09:25 34.94227 -74.48027 31974 ft 422 kts 310°
2026-05-07 09:25 34.97620 -74.52301 31963 ft 422 kts 310°
2026-05-07 09:26 35.01707 -74.57455 31973 ft 422 kts 309°
2026-05-07 09:26 35.05789 -74.62612 31968 ft 423 kts 309°
2026-05-07 09:27 35.09875 -74.67780 31957 ft 423 kts 309°
2026-05-07 09:28 35.15998 -74.75542 31956 ft 423 kts 309°
2026-05-07 09:28 35.20081 -74.80727 31954 ft 423 kts 309°
2026-05-07 09:29 35.24164 -74.85920 31944 ft 423 kts 309°
2026-05-07 09:29 35.28245 -74.91120 31954 ft 424 kts 309°
2026-05-07 09:30 35.32323 -74.96322 31953 ft 422 kts 309°
2026-05-07 09:30 35.36375 -75.01501 31950 ft 420 kts 309°
2026-05-07 09:31 35.40383 -75.06630 31959 ft 419 kts 308°
2026-05-07 09:31 35.44414 -75.11780 31944 ft 418 kts 308°
2026-05-07 09:32 35.48434 -75.16919 31944 ft 417 kts 308°
2026-05-07 09:32 35.52447 -75.22056 31946 ft 417 kts 308°
2026-05-07 09:33 35.56455 -75.27199 31948 ft 417 kts 308°
2026-05-07 09:33 35.60465 -75.32353 31969 ft 417 kts 308°
2026-05-07 09:34 35.64467 -75.37503 31954 ft 417 kts 308°
2026-05-07 09:34 35.68468 -75.42661 31947 ft 416 kts 308°
2026-05-07 09:35 35.72471 -75.47830 31943 ft 418 kts 308°
2026-05-07 09:35 35.76484 -75.53019 31948 ft 419 kts 308°
2026-05-07 09:36 35.80503 -75.58224 31936 ft 420 kts 308°
2026-05-07 09:36 35.84527 -75.63443 31939 ft 420 kts 308°
2026-05-07 09:37 35.88547 -75.68671 31965 ft 420 kts 308°
2026-05-07 09:37 35.92569 -75.73918 31953 ft 421 kts 308°
2026-05-07 09:38 35.96593 -75.79178 31946 ft 422 kts 307°
2026-05-07 09:38 36.00624 -75.84454 31926 ft 422 kts 307°
2026-05-07 09:39 36.04659 -75.89743 31923 ft 423 kts 307°
2026-05-07 09:39 36.08690 -75.95036 31916 ft 423 kts 307°
2026-05-07 09:40 36.12721 -76.00337 31911 ft 423 kts 307°
2026-05-07 09:40 36.16752 -76.05647 31919 ft 423 kts 307°
2026-05-07 09:41 36.20766 -76.10943 31923 ft 421 kts 306°
2026-05-07 09:41 36.24737 -76.16190 31922 ft 420 kts 306°
2026-05-07 09:42 36.28565 -76.21606 31919 ft 416 kts 302°
2026-05-07 09:42 36.32210 -76.27167 31917 ft 416 kts 302°
2026-05-07 09:43 36.35868 -76.32725 31921 ft 416 kts 302°
2026-05-07 09:43 36.39545 -76.38271 31917 ft 416 kts 302°
2026-05-07 09:44 36.43285 -76.43771 31908 ft 421 kts 307°
2026-05-07 09:44 36.47977 -76.48303 31937 ft 435 kts 320°
2026-05-07 09:45 36.53073 -76.52320 31920 ft 433 kts 318°
2026-05-07 09:45 36.58123 -76.56389 31908 ft 432 kts 317°
2026-05-07 09:46 36.63159 -76.60471 31911 ft 432 kts 317°
2026-05-07 09:46 36.68193 -76.64558 31907 ft 432 kts 317°
2026-05-07 09:47 36.73221 -76.68643 31924 ft 432 kts 317°
2026-05-07 09:47 36.78259 -76.72742 31913 ft 432 kts 317°
2026-05-07 09:48 36.83263 -76.76821 31906 ft 433 kts 317°
2026-05-07 09:48 36.88304 -76.80935 31900 ft 433 kts 317°
2026-05-07 09:49 36.93351 -76.85060 31892 ft 433 kts 317°
2026-05-07 09:49 36.98391 -76.89179 31920 ft 432 kts 316°
2026-05-07 09:50 37.03402 -76.93287 31925 ft 429 kts 315°
2026-05-07 09:50 37.08381 -76.97379 31909 ft 427 kts 315°
2026-05-07 09:51 37.13336 -77.01458 31912 ft 425 kts 315°
2026-05-07 09:51 37.18272 -77.05527 31908 ft 425 kts 315°
2026-05-07 09:52 37.23206 -77.09601 31906 ft 424 kts 315°
2026-05-07 09:52 37.28135 -77.13676 31914 ft 424 kts 314°
2026-05-07 09:53 37.33054 -77.17748 31915 ft 423 kts 314°
2026-05-07 09:53 37.37932 -77.21794 31923 ft 423 kts 314°
2026-05-07 09:54 37.42835 -77.25865 31931 ft 421 kts 313°
2026-05-07 09:54 37.47710 -77.29922 31921 ft 420 kts 313°
2026-05-07 09:55 37.52962 -77.33443 31937 ft 445 kts 325°
2026-05-07 09:55 37.58787 -77.36079 31922 ft 444 kts 324°
2026-05-07 09:56 37.64560 -77.38774 31955 ft 442 kts 324°
2026-05-07 09:56 37.70310 -77.41497 31954 ft 441 kts 324°
2026-05-07 09:57 37.76050 -77.44226 31954 ft 440 kts 324°
2026-05-07 09:57 37.81782 -77.46954 31956 ft 440 kts 324°
2026-05-07 09:58 37.87511 -77.49683 31951 ft 440 kts 324°
2026-05-07 09:58 37.93244 -77.52418 31934 ft 440 kts 324°
2026-05-07 09:59 37.98977 -77.55158 31959 ft 441 kts 324°
2026-05-07 09:59 38.04718 -77.57906 31961 ft 441 kts 323°
2026-05-07 10:00 38.10455 -77.60648 31962 ft 440 kts 323°
2026-05-07 10:00 38.16137 -77.63377 31957 ft 439 kts 323°
2026-05-07 10:01 38.21895 -77.66150 31955 ft 439 kts 323°
2026-05-07 10:01 38.27559 -77.68879 31975 ft 438 kts 323°
2026-05-07 10:02 38.33252 -77.71626 31960 ft 437 kts 323°
2026-05-07 10:02 38.38923 -77.74368 31962 ft 435 kts 323°
2026-05-07 10:03 38.44578 -77.77107 31959 ft 435 kts 323°
2026-05-07 10:03 38.50233 -77.79852 32007 ft 434 kts 322°
2026-05-07 10:04 38.55884 -77.82598 31985 ft 434 kts 322°
2026-05-07 10:04 38.61531 -77.85338 31978 ft 436 kts 323°
2026-05-07 10:04 38.64503 -77.86427 31961 ft 454 kts 332°
2026-05-07 10:05 38.67707 -77.86965 31953 ft 476 kts 340°
2026-05-07 10:05 38.74361 -77.87257 31998 ft 479 kts 341°
2026-05-07 10:06 38.81026 -77.87545 31957 ft 479 kts 341°
2026-05-07 10:06 38.87680 -77.87870 31962 ft 478 kts 341°
2026-05-07 10:07 38.94327 -77.88232 31954 ft 478 kts 341°
2026-05-07 10:07 39.00975 -77.88602 31976 ft 478 kts 341°
2026-05-07 10:08 39.07630 -77.88962 31972 ft 479 kts 341°
2026-05-07 10:08 39.14293 -77.89327 31967 ft 480 kts 341°
2026-05-07 10:09 39.20973 -77.89699 31985 ft 482 kts 340°
2026-05-07 10:09 39.27679 -77.90073 31971 ft 483 kts 341°
2026-05-07 10:10 39.34410 -77.90443 31960 ft 485 kts 341°
2026-05-07 10:10 39.41153 -77.90812 32009 ft 485 kts 340°
2026-05-07 10:11 39.47916 -77.91188 31974 ft 487 kts 340°
2026-05-07 10:11 39.54641 -77.91558 31963 ft 487 kts 340°
2026-05-07 10:12 39.61406 -77.91930 31962 ft 486 kts 340°
2026-05-07 10:12 39.68176 -77.92308 31973 ft 488 kts 340°
2026-05-07 10:13 39.74946 -77.92704 31982 ft 487 kts 340°
2026-05-07 10:13 39.81716 -77.93070 31968 ft 487 kts 340°
2026-05-07 10:14 39.88481 -77.93438 31975 ft 487 kts 340°
2026-05-07 10:14 39.95229 -77.93798 31978 ft 484 kts 340°
2026-05-07 10:15 40.00831 -77.94092 31991 ft 481 kts 339°
2026-05-07 10:15 40.07533 -77.94552 31974 ft 485 kts 340°
2026-05-07 10:16 40.14332 -77.94778 31964 ft 486 kts 340°
2026-05-07 10:16 40.21086 -77.95196 31965 ft 485 kts 340°
2026-05-07 10:17 40.27835 -77.95625 31982 ft 485 kts 340°
2026-05-07 10:17 40.34579 -77.96023 32005 ft 485 kts 339°
2026-05-07 10:18 40.41327 -77.96459 31979 ft 485 kts 339°
2026-05-07 10:18 40.48103 -77.96749 31976 ft 486 kts 340°
2026-05-07 10:19 40.54852 -77.97138 31998 ft 486 kts 339°
2026-05-07 10:19 40.61603 -77.97540 31973 ft 485 kts 339°
2026-05-07 10:20 40.68340 -77.97954 31984 ft 484 kts 339°
2026-05-07 10:20 40.75073 -77.98349 32042 ft 484 kts 339°
2026-05-07 10:21 40.81805 -77.98735 31985 ft 484 kts 339°
2026-05-07 10:21 40.88522 -77.99123 31974 ft 483 kts 339°
2026-05-07 10:22 40.94990 -78.00158 32018 ft 448 kts 326°
2026-05-07 10:22 41.00918 -78.02439 31988 ft 442 kts 324°
2026-05-07 10:23 41.06833 -78.04641 31984 ft 444 kts 325°
2026-05-07 10:23 41.12821 -78.06872 31993 ft 444 kts 325°
2026-05-07 10:24 41.18795 -78.09060 32028 ft 446 kts 325°
2026-05-07 10:24 41.24791 -78.11229 31997 ft 447 kts 325°
2026-05-07 10:24 41.27748 -78.12373 31974 ft 436 kts 322°
2026-05-07 10:25 41.30638 -78.13615 31978 ft 442 kts 324°
2026-05-07 10:25 41.36662 -78.15572 31977 ft 449 kts 327°
2026-05-07 10:25 41.39652 -78.16633 32090 ft 443 kts 324°
2026-05-07 10:26 41.42632 -78.17749 32013 ft 445 kts 324°
2026-05-07 10:26 41.48619 -78.19944 32010 ft 445 kts 324°
2026-05-07 10:27 41.54629 -78.22144 31976 ft 449 kts 325°
2026-05-07 10:27 41.60730 -78.24141 32027 ft 447 kts 324°
2026-05-07 10:28 41.66609 -78.26545 31987 ft 444 kts 324°
2026-05-07 10:28 41.72592 -78.28739 31979 ft 447 kts 325°
2026-05-07 10:29 41.78605 -78.30883 31977 ft 447 kts 325°
2026-05-07 10:29 41.84605 -78.33066 31981 ft 447 kts 326°
2026-05-07 10:30 41.93607 -78.36395 31973 ft 446 kts 326°
2026-05-07 10:30 41.99593 -78.38634 31978 ft 446 kts 326°
2026-05-07 10:31 42.05556 -78.40907 32010 ft 448 kts 327°
2026-05-07 10:31 42.11595 -78.43097 31989 ft 450 kts 327°
2026-05-07 10:32 42.17637 -78.45318 31981 ft 450 kts 327°
2026-05-07 10:32 42.23627 -78.47575 31957 ft 449 kts 327°
2026-05-07 10:33 42.29705 -78.49851 31256 ft 458 kts 328°
2026-05-07 10:33 42.32768 -78.50985 30570 ft 455 kts 328°
2026-05-07 10:33 42.35823 -78.52118 29756 ft 455 kts 328°
2026-05-07 10:34 42.38878 -78.53255 28821 ft 456 kts 329°
2026-05-07 10:34 42.41942 -78.54388 27898 ft 455 kts 329°
2026-05-07 10:34 42.44987 -78.55541 27026 ft 455 kts 330°
2026-05-07 10:34 42.48035 -78.56693 26077 ft 456 kts 330°
2026-05-07 10:35 42.51084 -78.57842 25343 ft 452 kts 331°
2026-05-07 10:35 42.54096 -78.58971 24649 ft 446 kts 332°
2026-05-07 10:35 42.57068 -78.60087 23980 ft 441 kts 332°
2026-05-07 10:35 42.60011 -78.61197 23250 ft 436 kts 332°
2026-05-07 10:36 42.62922 -78.62296 22489 ft 431 kts 332°
2026-05-07 10:36 42.65793 -78.63381 21817 ft 425 kts 333°
2026-05-07 10:36 42.68627 -78.64454 21163 ft 420 kts 333°
2026-05-07 10:36 42.71428 -78.65518 20493 ft 416 kts 333°
2026-05-07 10:37 42.74199 -78.66573 19832 ft 411 kts 334°
2026-05-07 10:37 42.76938 -78.67615 19196 ft 407 kts 334°
2026-05-07 10:37 42.79648 -78.68648 18575 ft 403 kts 335°
2026-05-07 10:37 42.82339 -78.69678 17872 ft 400 kts 335°
2026-05-07 10:38 42.85009 -78.70696 17170 ft 396 kts 336°
2026-05-07 10:38 42.87651 -78.71701 16551 ft 392 kts 336°
2026-05-07 10:38 42.90266 -78.72697 15893 ft 388 kts 336°
2026-05-07 10:38 42.92779 -78.73877 15250 ft 375 kts 325°
2026-05-07 10:39 42.94737 -78.76028 14710 ft 354 kts 306°
2026-05-07 10:39 42.96286 -78.78602 14108 ft 349 kts 304°
2026-05-07 10:39 42.97816 -78.81168 13469 ft 347 kts 304°
2026-05-07 10:39 42.99339 -78.83711 12822 ft 345 kts 305°
2026-05-07 10:40 43.00850 -78.86228 12215 ft 341 kts 305°
2026-05-07 10:40 43.02353 -78.88733 11642 ft 342 kts 306°
2026-05-07 10:40 43.03846 -78.91219 11116 ft 341 kts 306°
2026-05-07 10:40 43.05355 -78.93731 11021 ft 337 kts 306°
2026-05-07 10:41 43.06819 -78.96168 10857 ft 328 kts 306°
2026-05-07 10:41 43.08245 -78.98541 10716 ft 314 kts 306°
2026-05-07 10:41 43.09584 -79.00773 10579 ft 302 kts 306°
2026-05-07 10:41 43.10890 -79.02952 10488 ft 290 kts 305°
2026-05-07 10:42 43.12149 -79.05055 10347 ft 280 kts 305°
2026-05-07 10:42 43.13362 -79.07082 10248 ft 271 kts 305°
2026-05-07 10:42 43.14535 -79.09042 10132 ft 262 kts 305°
2026-05-07 10:42 43.15671 -79.10938 10023 ft 253 kts 305°
2026-05-07 10:43 43.16784 -79.12801 9747 ft 251 kts 305°
2026-05-07 10:43 43.17884 -79.14644 9488 ft 248 kts 305°
2026-05-07 10:43 43.18972 -79.16469 9207 ft 246 kts 305°
2026-05-07 10:43 43.20051 -79.18279 8934 ft 244 kts 305°
2026-05-07 10:44 43.21121 -79.20075 8674 ft 242 kts 305°
2026-05-07 10:44 43.22184 -79.21860 8403 ft 240 kts 305°
2026-05-07 10:44 43.23237 -79.23628 8142 ft 239 kts 305°
2026-05-07 10:44 43.24288 -79.25396 7880 ft 238 kts 306°
2026-05-07 10:45 43.25335 -79.27155 7622 ft 238 kts 306°
2026-05-07 10:45 43.26378 -79.28910 7377 ft 236 kts 306°
2026-05-07 10:45 43.27401 -79.30629 7282 ft 229 kts 305°
2026-05-07 10:45 43.28394 -79.32300 7174 ft 223 kts 305°
2026-05-07 10:46 43.29371 -79.33905 7068 ft 217 kts 311°
2026-05-07 10:46 43.30676 -79.34916 6922 ft 223 kts 346°
2026-05-07 10:46 43.32255 -79.34863 6779 ft 233 kts
2026-05-07 10:46 43.33829 -79.34365 6591 ft 232 kts
2026-05-07 10:47 43.35376 -79.33796 6348 ft 226 kts
2026-05-07 10:47 43.36880 -79.33253 6120 ft 220 kts
2026-05-07 10:47 43.38337 -79.32738 5929 ft 212 kts
2026-05-07 10:47 43.39739 -79.32249 5730 ft 204 kts
2026-05-07 10:48 43.41091 -79.31781 5524 ft 197 kts
2026-05-07 10:48 43.42395 -79.31552 5330 ft 180 kts 342°
2026-05-07 10:48 43.43383 -79.32395 5276 ft 167 kts 313°
2026-05-07 10:48 43.44322 -79.33414 5088 ft 174 kts 319°
2026-05-07 10:49 43.45304 -79.34402 4921 ft 176 kts 319°
2026-05-07 10:49 43.46287 -79.35400 4752 ft 175 kts 318°
2026-05-07 10:49 43.47251 -79.36388 4572 ft 171 kts 318°
2026-05-07 10:49 43.48202 -79.37360 4426 ft 171 kts 320°
2026-05-07 10:50 43.49174 -79.38315 4275 ft 172 kts 319°
2026-05-07 10:50 43.50112 -79.39341 4119 ft 173 kts 315°
2026-05-07 10:50 43.51016 -79.40435 3963 ft 174 kts 314°
2026-05-07 10:50 43.51908 -79.41567 3804 ft 175 kts 313°
2026-05-07 10:51 43.52799 -79.42722 3648 ft 176 kts 313°
2026-05-07 10:51 43.53689 -79.43885 3502 ft 177 kts 313°
2026-05-07 10:51 43.54574 -79.45044 3333 ft 173 kts 313°
2026-05-07 10:51 43.55423 -79.46158 3157 ft 169 kts 314°
2026-05-07 10:52 43.56273 -79.47275 3052 ft 168 kts 314°
2026-05-07 10:52 43.57118 -79.48384 3027 ft 167 kts 314°
2026-05-07 10:52 43.57973 -79.49507 2765 ft 177 kts 314°
2026-05-07 10:52 43.58831 -79.50631 2578 ft 165 kts 314°
2026-05-07 10:53 43.59632 -79.51680 2376 ft 154 kts 315°
2026-05-07 10:53 43.60388 -79.52671 2260 ft 143 kts 315°
2026-05-07 10:53 43.61091 -79.53593 2117 ft 139 kts 315°
2026-05-07 10:53 43.61800 -79.54523 2050 ft 143 kts 315°
2026-05-07 10:54 43.62521 -79.55469 1895 ft 144 kts 315°
2026-05-07 10:54 43.63244 -79.56416 1703 ft 143 kts 315°
2026-05-07 10:54 43.63956 -79.57348 1495 ft 140 kts 315°
2026-05-07 10:54 43.64661 -79.58272 1290 ft 141 kts 315°
2026-05-07 10:55 43.65375 -79.59206 1085 ft 142 kts 315°
2026-05-07 10:55 43.66082 -79.60139 867 ft 139 kts 315°
2026-05-07 10:55 43.66777 -79.61062 699 ft 138 kts 315°
2026-05-07 10:55 43.67466 -79.61961 571 ft 131 kts 316°
2026-05-07 10:56 43.68047 -79.62716 568 ft 97 kts 316°
2026-05-07 10:56 43.68449 -79.63240 566 ft 62 kts 316°
2026-05-07 10:56 43.68629 -79.63475 565 ft 14 kts 316°
2026-05-07 10:56 43.68715 -79.63462 569 ft 14 kts 49°
2026-05-07 10:57 43.68779 -79.63364 568 ft 14 kts 46°
2026-05-07 10:57 43.68756 -79.63251 563 ft 14 kts 138°
2026-05-07 10:57 43.68686 -79.63162 563 ft 14 kts 136°
2026-05-07 10:57 43.68609 -79.63062 560 ft 17 kts 136°
2026-05-07 10:58 43.68517 -79.62943 564 ft 19 kts 137°
2026-05-07 10:58 43.68414 -79.62808 562 ft 22 kts 137°
2026-05-07 10:58 43.68304 -79.62667 564 ft 21 kts 137°
2026-05-07 10:58 43.68217 -79.62549 563 ft 11 kts 125°
2026-05-07 10:59 43.68241 -79.62454 568 ft 12 kts 46°
2026-05-07 10:59 43.68277 -79.62400 565 ft 11 kts 46°
2026-05-07 10:59 43.68263 -79.62309 564 ft 12 kts 134°
2026-05-07 10:59 43.68201 -79.62225 565 ft 13 kts 136°
2026-05-07 11:00 43.68126 -79.62128 566 ft 16 kts 136°
2026-05-07 11:00 43.68036 -79.62011 560 ft 19 kts 136°
2026-05-07 11:00 43.67964 -79.61921 560 ft 12 kts 139°
2026-05-07 11:00 43.67905 -79.61867 566 ft 10 kts 105°
2026-05-07 11:01 43.67908 -79.61825 563 ft 4 kts 72°
2026-05-07 11:01 43.67915 -79.61794 560 ft 0 kts 73°